Wetbulb
70.27 73.68 72.86 73.73 73.85 74.01 73.76 73.40 73.29 73.11 73.69 73.68 73.73 73.97 74.02 74.19 73.99 73.73 73.52 73.31 73.29 73.41 72.11 71.96 72.08 71.30 70.70 70.89 71.06 71.07 70.98 71.41 71.44 72.00 72.70 72.52 72.34 72.33 72.20 72.52 72.59 72.15 72.16
71.40 73.73 72.37 73.23 73.69 73.83 73.77 73.40 73.33 73.41 73.75 73.76 73.82 73.93 73.78 73.70 73.37 73.21 73.15 73.14 72.90 72.89 71.70 71.49 71.60 70.57 70.61 70.43 70.40 70.38 70.24 70.77 70.81 71.26 72.01 71.93 71.81 71.71 72.00 72.13 72.08 72.47 72.40
71.69 73.64 73.99 72.47 73.13 73.64 73.80 73.68 73.84 74.00 74.01 73.91 73.84 73.65 73.60 73.43 73.15 73.14 72.91 72.64 72.80 72.57 71.63 71.51 71.42 71.31 71.46 71.15 70.74 70.15 69.87 69.87 69.78 69.96 71.23 71.00 71.07 71.47 71.64 72.29 72.13 72.29 72.18
72.21 73.64 73.99 71.82 72.68 73.38 73.49 73.55 73.67 74.10 73.93 73.77 73.64 73.43 73.46 73.19 72.90 73.03 72.53 72.19 72.60 72.77 72.29 72.37 72.20 71.59 70.83 70.16 70.31 70.48 69.67 69.18 69.05 69.60 69.40 69.44 70.87 70.97 70.91 71.56 71.80 72.06 71.91
72.12 73.30 73.93 71.39 71.92 72.70 73.13 73.20 73.34 73.49 73.13 73.13 72.98 73.34 73.11 72.95 72.98 73.08 72.19 71.78 72.61 73.02 72.64 72.17 71.78 70.23 68.78 68.03 68.54 69.55 69.87 68.28 68.13 69.54 69.25 69.46 69.80 70.66 71.04 71.41 70.90 70.68 71.01
72.19 72.73 71.31 70.46 71.44 72.42 73.08 73.00 72.95 72.81 72.42 72.27 72.30 72.73 72.94 72.78 72.87 72.57 71.70 71.83 72.54 73.02 72.50 71.86 70.25 68.65 67.51 67.18 68.67 68.87 68.66 67.25 68.16 69.03 69.29 69.35 69.69 69.99 70.44 70.40 70.35 70.42 70.41
71.89 72.91 73.35 70.01 71.06 72.12 72.89 72.74 72.17 71.98 71.77 71.89 72.06 72.14 72.31 72.57 72.44 71.94 71.39 71.39 71.83 72.06 72.13 70.82 69.18 67.83 67.03 67.00 68.65 68.68 67.44 67.08 70.30 69.94 69.20 69.26 69.84 69.62 70.03 70.08 69.95 69.83 70.04
72.20 73.09 73.03 71.27 71.06 71.45 71.95 71.56 71.07 70.97 71.15 71.24 71.53 71.59 71.95 71.82 71.66 71.76 71.34 71.07 71.28 71.41 70.89 69.76 68.39 67.15 66.91 66.91 67.34 67.36 66.51 67.53 70.81 70.53 69.46 69.10 69.26 68.84 68.94 69.33 69.31 69.70 69.64
73.06 72.83 72.59 72.53 72.33 70.60 70.21 70.03 69.78 70.02 70.18 70.36 70.69 70.65 70.58 70.54 70.52 71.02 70.90 70.85 70.83 70.48 69.84 68.80 67.33 66.30 66.47 66.19 66.32 66.48 66.87 67.11 71.49 70.90 69.38 69.10 69.02 68.74 68.26 67.96 67.87 68.06 68.39
72.68 72.58 72.22 71.71 71.96 73.11 73.03 69.09 68.93 69.11 69.15 69.49 69.83 69.51 69.00 69.31 69.71 70.22 69.90 70.14 69.77 69.37 68.98 67.95 66.15 65.64 65.76 65.44 65.15 66.16 66.25 66.75 71.52 71.03 69.70 69.51 69.67 68.74 68.60 68.37 67.83 67.47 67.29
71.56 72.15 72.06 71.69 71.52 72.05 72.08 71.72 69.59 69.29 69.17 68.95 69.59 68.55 68.29 70.07 71.14 71.19 69.34 69.15 68.95 68.57 67.91 66.49 65.59 65.07 64.98 64.98 64.79 64.89 65.97 71.31 71.56 71.05 69.80 68.45 69.97 68.84 68.62 68.22 67.72 67.45 67.15
70.06 71.00 71.53 71.80 71.83 72.53 71.31 72.15 71.87 71.85 71.65 71.28 71.03 70.85 69.78 70.44 69.93 68.65 69.01 68.28 68.16 67.56 66.45 65.72 65.19 64.68 64.58 66.32 66.60 64.02 69.05 70.52 71.40 71.25 70.05 68.46 70.13 69.08 68.67 68.21 67.76 67.30 67.31
70.33 70.66 71.15 71.77 72.56 72.13 72.00 71.31 71.02 70.88 70.66 70.90 71.34 70.87 70.70 70.49 70.30 69.68 69.45 68.72 68.85 67.02 66.78 65.50 65.54 65.83 67.13 67.18 66.96 68.46 69.86 71.30 71.16 71.09 69.07 68.24 70.11 69.30 68.94 68.37 67.80 67.46 67.43
69.64 70.33 70.87 71.59 72.08 73.23 72.11 71.46 71.42 71.02 71.01 70.57 71.11 71.19 70.69 70.18 70.00 68.82 67.88 67.70 67.80 66.96 66.75 66.74 66.32 67.31 67.75 68.17 69.23 69.85 69.70 70.54 70.97 71.02 69.03 67.29 69.22 69.98 69.23 69.08 68.17 67.64 67.53
69.03 70.31 70.90 71.41 71.80 71.73 71.92 71.50 72.13 71.44 71.52 71.57 71.36 71.46 70.78 69.50 69.39 69.21 68.36 67.81 67.37 67.09 67.37 66.82 66.97 67.21 67.59 69.29 70.32 70.04 69.65 69.59 70.98 70.93 70.34 66.24 67.65 69.83 69.91 69.67 69.05 68.10 67.91
69.23 70.22 71.23 71.11 71.88 72.05 71.49 72.55 72.09 72.11 72.12 71.80 71.27 70.94 71.07 69.94 69.88 69.19 68.62 67.63 66.87 67.21 67.05 66.93 66.72 67.31 67.75 69.08 70.02 70.87 70.49 69.59 70.62 71.17 70.46 69.87 66.01 68.41 70.11 70.55 69.96 69.03 68.74
69.44 70.40 70.97 71.55 72.00 71.66 71.79 71.84 71.80 71.95 71.94 71.71 71.43 71.72 71.20 70.59 70.31 69.73 68.71 67.78 67.17 67.40 67.66 67.35 67.59 68.61 69.38 69.75 70.30 70.94 70.37 69.86 70.35 70.82 70.65 70.25 68.92 65.49 67.49 68.88 70.08 69.89 69.09
70.56 70.11 71.18 71.07 71.66 71.68 71.75 72.09 71.97 71.79 71.91 72.00 71.64 71.44 71.42 70.92 70.45 69.77 68.51 67.97 67.86 67.49 67.24 66.63 66.71 67.06 69.04 69.87 70.35 70.62 70.82 70.14 70.10 70.92 70.46 70.01 70.82 69.70 65.75 65.97 67.76 68.39 68.65
70.72 70.52 70.62 71.33 71.05 71.43 71.99 72.24 72.33 72.60 71.96 72.09 72.08 71.49 71.36 71.07 70.39 69.35 68.29 68.45 68.72 67.28 66.81 66.20 66.53 67.79 69.06 69.92 70.21 70.76 70.91 70.34 70.16 69.16 70.52 69.86 69.42 69.76 70.03 64.00 64.34 65.35 66.22
70.56 71.11 71.05 71.44 71.03 72.45 72.19 72.27 71.96 71.87 71.99 72.01 71.77 71.46 71.39 71.25 70.62 69.89 68.39 68.51 68.83 67.02 66.44 66.52 66.66 68.28 69.75 69.97 69.04 69.42 71.27 71.59 71.54 70.69 69.19 68.38 68.08 68.86 70.30 69.53 68.46 66.18 63.66
70.32 70.44 70.49 70.42 70.92 70.77 71.25 70.80 70.62 70.69 71.02 71.23 70.83 71.48 71.40 71.34 70.81 70.08 68.61 68.54 68.62 67.12 66.88 67.28 66.64 67.90 69.02 70.69 68.80 68.73 68.54 69.41 68.60 67.87 68.64 67.93 67.82 68.61 68.98 68.55 65.94 65.37 63.43
69.59 70.38 70.36 70.49 70.98 71.36 71.57 71.51 71.21 71.06 70.71 70.42 69.55 70.61 72.05 71.65 71.15 69.85 69.66 68.65 68.47 67.01 67.83 68.69 67.63 65.93 68.47 70.50 67.96 67.38 63.92 64.77 65.64 66.16 65.34 63.96 65.64 66.93 65.78 64.90 64.05 62.81 61.63
69.15 70.03 70.22 70.59 70.78 71.47 71.47 71.40 70.97 70.87 69.60 67.82 67.69 68.93 71.24 71.92 71.42 70.44 69.64 69.39 69.35 68.19 67.64 69.38 69.32 67.08 66.04 69.26 70.44 67.73 63.69 62.59 63.41 63.43 60.56 60.01 61.28 61.48 59.36 57.21 56.50 57.57 57.53
69.20 70.68 70.84 70.93 70.75 71.01 71.10 70.40 69.81 68.55 66.37 67.44 67.69 68.55 71.09 71.79 71.46 70.86 69.95 69.98 70.27 69.53 69.63 69.60 69.77 68.83 68.85 67.45 69.35 69.59 69.84 68.67 63.64 58.95 57.06 53.20 54.20 54.26 53.52 52.50 51.63 52.21 53.32
69.01 69.94 71.02 70.93 70.59 70.61 70.77 70.86 69.85 68.29 68.39 68.64 68.50 68.69 69.38 71.40 71.83 71.06 71.15 70.97 70.62 70.24 70.87 71.49 70.55 70.46 69.55 68.65 68.00 68.16 68.66 68.12 67.85 63.84 58.38 51.72 49.56 50.01 49.22 49.43 50.67 51.21 52.48
66.62 69.90 70.44 70.29 70.36 70.70 70.26 70.79 70.11 69.36 68.61 67.86 68.44 68.59 69.41 70.58 71.87 71.85 71.25 71.99 71.75 71.06 70.95 71.21 71.69 70.78 70.23 70.17 69.27 68.90 67.82 66.30 65.33 64.32 61.83 58.02 55.01 49.83 49.13 49.04 49.64 50.68 52.40
MSLP
1008.84 1010.30 1012.01 1012.50 1013.18 1013.52 1013.67 1014.07 1014.48 1014.86 1015.22 1015.60 1016.04 1016.41 1016.79 1017.11 1017.41 1017.67 1017.96 1018.21 1018.43 1018.69 1018.93 1019.18 1019.35 1019.52 1019.68 1019.75 1019.87 1019.96 1019.99 1019.98 1019.93 1019.87 1019.92 1019.95 1020.07 1020.08 1020.00 1019.73 1019.33 1019.56 1020.10
1008.76 1010.37 1012.09 1012.56 1013.19 1013.69 1013.89 1014.19 1014.63 1015.10 1015.48 1015.77 1016.22 1016.60 1017.02 1017.32 1017.66 1017.94 1018.18 1018.49 1018.74 1018.96 1019.23 1019.45 1019.66 1019.85 1019.99 1020.13 1020.22 1020.21 1020.32 1020.41 1020.33 1020.10 1019.95 1020.27 1020.45 1020.51 1020.47 1020.36 1020.21 1020.45 1020.41
1009.01 1010.34 1011.96 1012.71 1013.35 1013.89 1014.07 1014.33 1014.74 1015.20 1015.69 1016.05 1016.49 1016.77 1017.14 1017.59 1017.86 1018.19 1018.51 1018.74 1019.01 1019.27 1019.52 1019.78 1019.97 1020.10 1020.30 1020.48 1020.53 1020.66 1020.82 1020.83 1020.52 1020.13 1019.79 1019.77 1020.68 1020.81 1020.92 1020.90 1020.82 1020.89 1020.86
1009.31 1010.48 1011.49 1012.81 1013.38 1014.06 1014.38 1014.55 1014.94 1015.43 1015.89 1016.28 1016.58 1016.99 1017.36 1017.73 1018.11 1018.45 1018.74 1019.02 1019.26 1019.51 1019.77 1020.03 1020.26 1020.48 1020.75 1020.85 1020.91 1021.05 1021.17 1021.22 1020.82 1020.31 1019.60 1020.01 1020.68 1021.34 1021.27 1021.37 1021.40 1021.31 1021.28
1009.51 1010.49 1011.46 1012.81 1013.39 1014.04 1014.67 1014.76 1015.12 1015.74 1016.22 1016.52 1016.73 1017.21 1017.56 1017.91 1018.26 1018.63 1018.93 1019.25 1019.44 1019.69 1019.98 1020.26 1020.52 1020.83 1021.01 1021.09 1021.13 1021.27 1021.41 1021.29 1020.83 1020.14 1020.15 1020.48 1020.89 1021.89 1021.92 1021.80 1021.82 1021.83 1021.84
1009.53 1010.42 1012.23 1012.84 1013.39 1014.02 1014.76 1015.06 1015.38 1015.92 1016.42 1016.72 1017.04 1017.48 1017.73 1018.07 1018.42 1018.84 1019.15 1019.41 1019.64 1019.91 1020.19 1020.49 1020.84 1021.08 1021.16 1021.28 1021.33 1021.49 1021.57 1021.22 1020.82 1020.57 1020.95 1021.48 1021.66 1022.48 1022.45 1022.46 1022.48 1022.56 1022.51
1009.36 1010.40 1012.39 1012.97 1013.58 1013.97 1014.73 1015.21 1015.60 1016.10 1016.55 1016.94 1017.32 1017.58 1017.99 1018.34 1018.75 1019.09 1019.35 1019.64 1019.88 1020.10 1020.43 1020.74 1021.07 1021.29 1021.37 1021.44 1021.49 1021.66 1021.71 1021.33 1020.32 1020.70 1021.01 1021.60 1022.46 1022.87 1022.90 1022.92 1022.91 1022.96 1022.97
1009.62 1010.47 1012.16 1013.35 1013.78 1014.14 1014.68 1015.38 1015.75 1016.24 1016.77 1017.17 1017.52 1017.76 1018.16 1018.60 1019.07 1019.41 1019.57 1019.90 1020.16 1020.42 1020.71 1020.96 1021.21 1021.43 1021.48 1021.58 1021.70 1021.84 1021.87 1021.38 1020.86 1021.08 1021.24 1022.04 1023.10 1023.16 1023.20 1023.19 1023.25 1023.27 1023.35
1010.32 1010.86 1012.04 1013.04 1013.89 1014.35 1014.69 1015.41 1015.93 1016.36 1016.90 1017.42 1017.75 1018.05 1018.47 1018.94 1019.29 1019.63 1019.85 1020.12 1020.56 1020.79 1021.03 1021.28 1021.43 1021.59 1021.65 1021.78 1021.89 1022.00 1022.09 1021.79 1021.06 1021.31 1021.39 1022.24 1023.36 1023.38 1023.44 1023.50 1023.57 1023.59 1023.69
1010.50 1011.02 1011.74 1012.59 1013.57 1014.22 1014.91 1015.50 1016.00 1016.48 1017.05 1017.52 1018.07 1018.40 1018.83 1019.25 1019.56 1019.85 1020.16 1020.43 1020.80 1021.08 1021.33 1021.47 1021.59 1021.70 1021.78 1021.92 1022.07 1022.18 1022.27 1022.01 1021.14 1021.18 1021.53 1022.87 1023.52 1023.59 1023.66 1023.72 1023.80 1023.90 1023.94
1010.49 1010.99 1011.47 1012.19 1013.09 1013.96 1014.62 1015.58 1016.19 1016.60 1017.11 1017.71 1018.20 1018.72 1019.09 1018.84 1019.47 1019.97 1019.90 1020.63 1021.04 1021.29 1021.52 1021.72 1021.79 1021.86 1021.99 1022.12 1022.24 1022.38 1022.25 1020.83 1021.20 1021.13 1021.76 1023.45 1023.61 1023.80 1023.94 1024.03 1024.12 1024.20 1024.20
1009.78 1010.44 1011.11 1011.89 1012.81 1013.58 1014.15 1015.32 1015.88 1016.42 1016.82 1017.21 1017.70 1018.46 1018.24 1018.36 1018.74 1019.05 1020.05 1020.83 1021.20 1021.55 1021.77 1021.93 1022.08 1022.10 1022.01 1021.33 1021.83 1022.40 1021.13 1021.24 1021.22 1021.32 1022.17 1023.48 1023.65 1023.85 1024.10 1024.28 1024.40 1024.44 1024.50
1009.78 1010.09 1010.61 1011.41 1012.20 1013.12 1013.37 1014.52 1015.08 1015.79 1016.21 1016.66 1017.21 1017.73 1017.61 1018.24 1018.71 1018.97 1019.82 1020.58 1020.87 1021.49 1021.32 1021.67 1021.93 1021.33 1020.84 1020.67 1020.96 1021.00 1021.24 1021.44 1021.16 1021.34 1022.86 1023.58 1023.77 1023.94 1024.18 1024.41 1024.54 1024.65 1024.73
1009.37 1010.16 1010.63 1011.31 1011.93 1012.55 1013.07 1013.74 1014.11 1014.79 1015.48 1015.94 1016.68 1017.30 1017.49 1017.93 1018.54 1018.65 1019.00 1019.45 1019.89 1020.36 1020.21 1020.57 1020.72 1020.78 1021.19 1020.95 1021.00 1021.20 1021.25 1020.89 1021.13 1021.50 1023.08 1023.75 1023.90 1024.07 1024.27 1024.42 1024.68 1024.90 1024.97
1008.89 1009.75 1010.37 1011.02 1011.73 1012.17 1012.67 1013.12 1013.61 1014.16 1014.97 1015.45 1016.28 1017.04 1017.17 1017.40 1018.00 1018.39 1018.68 1018.92 1019.10 1019.53 1019.99 1020.14 1020.28 1020.83 1020.97 1021.09 1021.10 1021.07 1021.26 1021.35 1021.42 1021.37 1022.42 1023.78 1024.02 1024.20 1024.33 1024.49 1024.72 1024.98 1025.16
1008.44 1009.19 1010.04 1010.60 1011.47 1011.95 1012.11 1012.62 1013.33 1013.88 1014.59 1015.22 1015.82 1016.48 1017.01 1017.15 1017.75 1018.06 1018.46 1018.70 1018.85 1019.21 1019.43 1019.79 1020.02 1020.34 1020.51 1020.59 1020.88 1020.89 1021.02 1021.21 1021.50 1021.61 1021.95 1023.34 1024.10 1024.27 1024.40 1024.53 1024.67 1024.89 1025.16
1007.47 1008.58 1009.38 1010.20 1011.11 1011.82 1012.18 1012.48 1012.97 1013.50 1014.04 1014.74 1015.37 1016.17 1016.75 1017.07 1017.54 1017.74 1018.03 1018.38 1018.64 1019.04 1019.39 1019.70 1020.12 1020.11 1020.20 1020.45 1020.48 1020.85 1020.94 1021.25 1021.37 1021.70 1021.66 1022.14 1023.66 1024.30 1024.35 1024.48 1024.59 1024.88 1025.20
1006.61 1007.44 1008.62 1009.47 1010.34 1011.30 1011.73 1012.29 1012.51 1012.94 1013.58 1014.09 1014.85 1015.70 1016.29 1016.79 1017.13 1017.54 1017.56 1017.98 1018.29 1018.92 1019.35 1019.38 1019.61 1019.81 1019.95 1020.10 1020.15 1020.27 1020.43 1020.92 1021.36 1021.59 1021.54 1021.87 1022.38 1023.30 1024.30 1024.40 1024.56 1024.83 1025.32
1005.43 1006.58 1007.57 1008.65 1009.49 1010.52 1011.28 1011.74 1012.24 1012.56 1013.21 1013.53 1014.26 1015.06 1015.78 1016.23 1016.73 1016.99 1017.05 1017.59 1018.24 1018.52 1018.90 1019.19 1019.34 1019.38 1019.54 1019.70 1019.85 1020.09 1020.34 1020.65 1021.68 1021.97 1021.80 1022.85 1023.12 1023.03 1023.39 1024.71 1024.82 1025.08 1025.38
1004.65 1005.87 1006.94 1008.00 1008.93 1010.01 1010.83 1011.37 1011.85 1012.24 1012.80 1013.05 1013.75 1014.33 1015.23 1015.45 1016.14 1016.60 1016.61 1017.13 1017.93 1018.13 1018.49 1018.85 1019.16 1019.38 1019.29 1019.35 1019.46 1020.06 1020.71 1021.64 1021.93 1022.22 1022.52 1022.91 1023.36 1023.58 1023.42 1024.02 1024.94 1025.41 1025.69
1003.87 1005.18 1006.04 1006.99 1008.09 1009.30 1009.83 1010.16 1010.63 1010.97 1011.92 1012.57 1013.36 1013.95 1014.50 1014.80 1015.33 1016.02 1016.00 1016.73 1017.38 1017.56 1017.93 1018.54 1018.96 1019.30 1019.22 1019.13 1019.29 1020.26 1021.39 1022.03 1022.66 1023.17 1023.28 1023.41 1023.54 1023.62 1023.91 1024.32 1025.03 1025.63 1026.13
1003.06 1004.19 1005.24 1005.95 1006.80 1007.95 1008.58 1008.94 1009.66 1010.32 1011.26 1012.30 1013.41 1013.76 1013.72 1014.21 1014.56 1015.02 1015.39 1015.90 1016.65 1017.01 1017.65 1018.14 1018.47 1018.60 1018.79 1019.01 1018.91 1019.76 1020.58 1021.82 1022.46 1023.07 1023.62 1024.21 1024.04 1024.14 1024.65 1025.08 1025.57 1026.02 1026.39
1002.18 1003.38 1004.37 1004.90 1005.46 1006.38 1007.41 1008.43 1009.33 1010.12 1011.16 1012.17 1012.69 1013.04 1012.83 1013.34 1013.89 1014.27 1014.73 1015.08 1015.78 1016.29 1016.84 1017.57 1017.97 1017.90 1018.00 1018.53 1018.58 1018.29 1018.62 1019.10 1021.22 1023.05 1024.00 1024.52 1024.77 1025.00 1025.84 1026.42 1026.60 1026.63 1026.83
1001.40 1002.65 1003.50 1004.20 1004.78 1005.70 1006.70 1007.13 1007.76 1008.22 1009.33 1010.15 1011.41 1012.22 1012.18 1012.64 1013.16 1013.60 1013.84 1014.53 1015.04 1015.48 1015.83 1016.65 1017.24 1017.40 1017.45 1017.57 1018.27 1018.12 1017.95 1017.96 1019.39 1021.78 1024.21 1025.29 1025.67 1026.05 1026.61 1027.08 1027.30 1027.40 1027.44
1000.49 1001.43 1002.62 1003.25 1003.92 1004.85 1005.61 1005.90 1006.76 1007.49 1008.15 1009.21 1010.04 1010.90 1011.83 1011.73 1012.31 1012.66 1013.07 1013.51 1014.19 1014.63 1015.07 1015.60 1016.25 1016.82 1016.85 1016.70 1017.12 1017.58 1017.99 1018.45 1018.61 1019.28 1021.79 1024.75 1026.07 1026.67 1027.23 1027.32 1027.42 1027.55 1027.60
999.25 1000.53 1001.55 1002.41 1002.87 1003.70 1004.61 1005.29 1005.68 1006.28 1007.03 1007.83 1008.49 1009.23 1010.09 1010.70 1011.22 1011.66 1012.13 1012.48 1013.06 1013.75 1014.14 1014.78 1015.45 1015.97 1016.19 1016.38 1016.26 1016.74 1017.08 1017.54 1018.17 1018.64 1019.83 1022.20 1023.82 1025.97 1026.86 1027.30 1027.35 1027.29 1027.44
Wind_Speed
17 23 17 14 11 11 16 19 18 18 19 19 19 18 18 18 17 16 16 16 17 18 19 19 17 17 17 18 17 16 16 15 13 14 18 19 18 16 14 11 11 16 15
22 25 17 15 13 12 17 20 19 19 19 20 19 19 18 17 17 16 16 16 17 18 19 18 17 18 18 17 15 15 15 14 10 8 17 18 17 18 17 17 16 15 15
23 24 20 15 14 13 17 20 20 20 20 20 19 19 18 17 17 16 16 16 17 17 18 17 17 17 16 14 13 13 13 12 7 3 3 14 15 15 18 16 15 15 15
22 22 22 15 16 14 15 19 20 20 20 20 20 19 18 18 17 16 16 16 17 17 18 17 15 14 12 10 10 10 11 8 3 6 11 13 14 15 16 17 15 14 17
22 22 21 17 17 17 13 18 19 19 18 19 19 19 18 18 17 16 15 15 16 17 17 16 15 13 11 9 8 9 10 6 5 8 13 13 12 12 14 12 15 17 17
23 22 20 18 18 17 14 16 18 18 17 18 18 18 18 17 17 15 14 15 16 16 16 15 14 11 10 8 8 11 9 7 7 13 13 12 14 13 15 15 15 14 14
23 20 20 17 17 19 17 17 18 17 17 17 17 18 17 16 16 14 13 13 14 15 15 14 12 10 10 9 10 11 8 4 10 11 12 13 12 12 14 14 14 14 14
22 20 20 17 17 19 19 16 17 17 16 15 16 17 17 16 14 12 12 12 12 13 13 12 11 9 10 9 10 10 6 6 9 10 12 12 10 12 13 14 13 13 13
19 20 20 19 18 15 18 16 15 16 15 14 14 14 14 13 13 12 11 12 11 11 11 10 10 9 9 9 8 8 4 5 8 7 10 9 9 12 13 13 13 13 13
19 20 20 20 19 17 16 16 16 15 14 14 13 13 12 12 11 12 11 11 11 11 10 10 10 9 8 8 8 7 6 5 8 8 9 9 9 11 12 13 13 13 13
17 19 20 20 19 18 17 15 16 17 16 14 13 12 13 12 14 15 9 12 11 11 10 10 9 8 8 6 7 7 8 4 6 5 8 9 9 11 11 11 11 12 13
23 23 21 21 20 19 15 17 16 16 14 14 15 16 12 12 12 12 11 11 10 10 10 9 9 8 9 8 7 6 6 5 4 5 8 9 10 11 11 10 10 11 12
20 19 23 21 20 20 16 14 10 10 11 11 16 15 12 10 9 8 8 9 9 10 9 9 9 8 6 5 7 5 5 6 5 5 10 7 9 11 11 10 9 10 11
23 21 22 22 20 19 13 13 14 12 12 10 13 16 10 8 10 9 8 11 10 9 9 9 7 6 7 6 6 6 5 3 5 5 9 6 7 10 10 10 9 9 10
22 23 23 22 20 19 18 15 13 13 12 12 13 14 12 11 11 10 9 9 9 10 9 8 7 8 8 8 7 6 6 4 5 5 7 8 6 8 9 9 9 9 10
21 24 23 23 21 20 18 18 13 13 14 13 12 14 15 11 10 11 10 10 9 9 9 8 8 8 8 8 7 6 6 6 7 6 8 9 6 6 7 9 10 11 11
21 23 25 24 22 21 20 18 14 13 14 13 12 15 16 13 13 12 10 10 9 9 10 8 8 8 7 7 8 7 7 7 7 8 8 9 10 6 6 5 9 11 12
22 25 25 21 23 22 20 16 13 14 13 13 12 13 17 16 15 13 10 10 10 9 9 9 9 9 8 8 8 8 6 7 7 7 6 5 8 7 6 7 9 10 14
23 24 25 25 24 23 20 16 15 15 13 13 12 12 17 17 15 12 11 10 11 10 9 9 9 9 8 9 8 7 5 6 5 3 3 5 5 6 6 8 9 13 15
21 24 24 21 23 21 15 14 13 13 14 13 12 13 17 15 17 14 11 11 11 10 10 10 10 9 9 9 8 7 4 3 4 2 4 4 4 5 8 10 11 10 14
21 24 26 26 25 17 16 16 16 15 14 13 13 16 17 16 18 17 12 13 13 12 12 12 11 12 9 10 9 7 5 6 5 4 4 3 5 4 6 8 7 7 8
22 25 26 27 26 21 17 16 15 14 14 12 11 16 17 18 19 17 16 14 15 12 14 14 14 11 10 11 10 11 8 5 5 5 5 5 4 6 7 8 9 9 8
22 24 24 26 27 24 23 15 14 12 8 10 12 14 18 19 19 20 19 14 15 13 13 14 15 16 13 12 15 8 8 7 10 6 6 5 4 6 7 7 7 7 8
20 21 24 24 25 23 25 20 23 18 17 15 13 12 16 20 21 20 20 17 15 13 14 15 14 14 13 14 13 12 6 2 8 6 7 5 5 6 6 5 5 6 6
19 20 21 24 25 24 24 22 19 19 15 14 14 18 19 18 21 22 20 19 17 14 15 15 16 17 13 13 13 13 12 8 6 6 8 7 4 4 5 5 5 4 6
17 20 20 23 25 25 25 24 23 23 19 16 16 15 14 15 15 21 21 18 17 16 16 15 16 18 15 14 13 14 13 13 10 7 6 12 9 6 6 6 6 7 7
Wind_Direction
154 149 155 152 157 154 150 146 144 142 141 138 135 131 128 124 117 112 109 108 109 110 110 108 103 101 96 91 88 85 78 68 61 70 72 71 74 70 55 48 107 85 78
156 154 155 151 147 153 150 143 142 142 142 139 136 132 128 123 119 115 114 115 114 115 113 109 106 102 96 90 87 82 78 73 65 67 105 86 71 72 63 58 58 75 72
155 156 161 143 141 152 149 144 142 141 143 140 137 132 128 125 121 120 120 120 120 119 116 114 108 102 96 90 88 90 83 79 74 50 65 84 75 69 68 68 74 75 73
155 156 161 142 143 149 150 143 141 143 144 143 136 132 131 128 127 127 125 125 125 125 122 118 111 105 98 92 97 102 92 95 132 241 85 84 83 70 67 70 66 81 81
158 160 151 146 144 148 151 143 141 143 142 141 135 135 133 132 131 130 131 132 132 129 128 123 115 108 97 89 101 119 106 126 218 87 80 78 82 76 64 76 87 68 60
159 164 138 142 144 143 148 144 139 140 141 137 137 136 135 134 135 137 137 138 137 135 130 124 119 112 102 92 104 129 128 181 229 92 92 76 76 83 80 77 77 73 73
158 161 156 143 147 143 145 143 139 137 138 137 137 135 135 136 140 142 140 141 141 136 131 128 123 117 106 98 105 125 141 229 88 89 90 89 89 93 91 87 84 81 79
158 155 159 148 148 145 140 140 136 136 136 137 137 135 137 140 142 142 140 139 139 135 133 132 128 122 111 105 118 131 146 224 101 95 93 91 99 97 93 90 86 81 81
160 156 160 167 154 142 136 138 138 135 135 134 134 134 137 140 141 140 137 134 133 134 135 131 126 124 116 109 119 138 147 276 108 107 112 107 110 103 98 93 90 88 85
163 161 165 169 169 165 157 144 142 137 136 134 135 134 135 135 136 137 135 135 139 137 135 133 133 129 121 113 118 137 140 228 114 124 93 99 118 106 99 94 91 90 86
171 168 167 169 172 171 169 158 147 143 139 136 139 137 146 163 167 157 153 140 144 138 140 141 140 136 128 122 129 147 195 133 137 116 103 134 126 112 104 100 96 93 91
177 174 171 170 173 171 171 165 168 161 165 170 169 166 178 158 174 182 138 142 143 140 141 143 142 148 198 161 155 184 217 116 156 139 106 151 138 123 114 108 102 100 95
181 177 176 174 172 177 171 170 171 170 169 173 176 178 175 171 162 173 153 164 162 172 168 172 163 191 183 180 163 179 117 181 133 125 121 155 144 132 125 118 115 107 98
187 187 182 179 175 180 172 179 173 175 174 174 179 181 168 179 172 176 171 174 175 182 171 183 177 157 176 180 170 149 164 166 148 125 133 158 153 143 138 134 128 120 111
195 192 191 184 182 183 181 183 180 181 181 178 176 183 178 182 178 179 179 181 183 176 181 185 165 176 171 174 176 177 165 140 146 137 141 164 168 157 155 152 149 136 125
205 198 194 190 188 189 187 183 182 186 181 181 180 181 189 188 179 184 180 189 186 181 180 181 174 172 181 171 179 181 167 162 172 152 134 160 173 169 175 175 168 152 138
207 199 198 193 189 195 196 185 185 187 185 185 181 184 189 193 183 188 186 190 188 187 177 181 177 185 179 188 180 173 158 155 154 171 168 149 158 157 164 168 171 160 145
203 202 196 194 191 196 198 189 191 187 190 188 184 184 189 193 186 194 189 193 186 184 189 186 185 180 184 186 174 168 174 160 156 168 180 169 143 162 165 163 146 139 133
202 201 197 195 194 196 198 193 199 191 199 193 189 191 192 192 192 195 194 190 185 189 192 193 190 190 179 185 176 174 179 144 188 164 161 152 171 203 157 113 117 123 128
202 202 197 191 192 195 193 198 198 200 200 199 197 194 192 195 193 199 197 191 192 195 191 194 192 195 189 185 184 175 118 149 136 146 143 125 152 163 175 149 145 128 124
199 200 198 192 190 190 194 194 198 202 200 201 201 203 198 200 193 198 201 192 196 202 200 191 192 188 198 193 179 138 137 133 123 90 76 70 133 146 125 123 111 130 118
202 201 198 198 190 190 195 196 201 198 203 200 201 208 205 203 199 195 203 192 194 200 200 195 197 190 200 191 196 178 170 155 122 106 120 117 143 140 110 109 118 121 123
207 198 202 200 194 191 198 195 199 201 193 200 198 210 211 206 206 202 200 201 193 203 197 198 201 199 196 193 218 199 193 209 147 134 93 86 86 97 95 91 85 83 95
211 201 206 203 199 196 195 195 199 198 198 203 205 208 218 209 209 206 201 203 199 200 201 197 200 204 206 196 203 219 241 180 201 162 122 97 102 114 119 102 105 99 112
203 208 204 204 203 197 195 203 196 206 204 204 207 203 213 209 212 208 206 199 203 204 203 199 199 205 206 208 201 206 202 201 207 169 164 150 113 123 127 127 124 125 127
209 205 204 208 202 201 199 202 199 202 205 204 202 202 201 210 205 210 207 204 203 204 204 202 202 203 213 214 211 213 211 208 195 191 163 161 153 157 153 155 161 159 155